C/2022 P3 ( ZTF )

Japanese version
Home page
Updated on March 27, 2023

---------------------------------------------------------------------

* Profile

Discovery Date August 2, 2022
Magnitude 19.4 mag
Discoverer Zwicky Transient Facility (ZTF) Collaboration

* Pictures

* Orbital Elements

Epoch 2023 Feb. 25.0 TT = JDT 2460000.5
T 2022 July 27.35517 TT                                 Rudenko
q   2.5613809            (2000.0)            P               Q
z  +0.0040943      Peri.    0.09770     +0.30432223     -0.48360268
 +/-0.0000038      Node    72.23303     +0.87337954     -0.20226645
e   0.9895128      Incl.   59.51735     +0.38025801     +0.85159658
>From 320 observations 2022 Aug. 2-2023 Jan. 31, mean residual 0".5.

* Magnitudes Graph

        m1 = 11.5 + 5 log d + 10.0 log r

---------------------------------------------------------------------

The orbital elements are published on M.P.E.C. 2023-C45.
The magnitudes graphs are made with Comet for Windows.

---------------------------------------------------------------------

Copyright(C) Seiichi Yoshida (comet@aerith.net). All rights reserved.